Regional Weather Roundup
Issued by NWS

Home | Current Version | Previous Version | Graphics & Text | Print | Product List | Glossary On
Versions: 1 2 3 4 5 6 7 8 9 10 11 12 13 14 15 16 17 18 19 20 21 22 23 24 25 26 27 28 29 30 31 32 33 34 35 36 37 38 39 40 41 42 43 44 45 46 47 48 49 50
000
ASUS43 KMKX 031300
RWRWI

WISCONSIN REGIONAL WEATHER ROUNDUP
NATIONAL WEATHER SERVICE MILWAUKEE/SULLIVAN WI
800 AM CDT SUN MAY 03 2015

NOTE: "FAIR" INDICATES FEW OR NO CLOUDS BELOW 12,000 FEET WITH NO
SIGNIFICANT WEATHER AND/OR OBSTRUCTIONS TO VISIBILITY.

WIZ001-002-006>008-014>016-023>028-031400-
NORTHWEST WISCONSIN

CITY           SKY/WX    TMP DP  RH WIND       PRES   REMARKS
SUPERIOR ARPT  PTSUNNY   62  55  80 SW12      29.72R
ASHLAND        CLOUDY    63  51  65 S8        29.74S
HAYWARD        CLOUDY    61  49  64 S14       29.77F
SIREN          CLOUDY    58  50  72 SE8       29.76R
CUMBERLAND     PTSUNNY   55  48  76 SE9       29.79F
RICE LAKE      PTSUNNY   58  49  72 SE3       29.82F
CHETEK         PTSUNNY   58  51  77 CALM      29.82F
LADYSMITH      PTSUNNY   55  50  84 SE3       29.85S
EAU CLAIRE     NOT AVBL
MENOMONIE      CLOUDY    59  50  73 S3        29.82R
NEW RICHMOND   CLOUDY    56  49  79 SE5       29.79S
OSCEOLA        CLOUDY    58  51  76 S8        29.80S
$$

WIZ003>005-009-010-017-018-031400-
NORTH CENTRAL WISCONSIN

CITY           SKY/WX    TMP DP  RH WIND       PRES   REMARKS
MANITOWISH WTR PTSUNNY   58  50  73 SW9       29.82F
ARBOR VITAE    MOSUNNY   59  51  75 SW8       29.83F
WOODRUFF       MOSUNNY   59  51  75 SW8       29.83F
RHINELANDER    SUNNY     59  49  69 SW10      29.86R
EAGLE RIVER    MOSUNNY   58  47  68 SW12      29.84R
LAND O LAKES   MOSUNNY   59  49  68 SW8       29.84S
PHILLIPS       CLOUDY    57  49  76 SW7       29.83S
TOMAHAWK       SUNNY     56  49  76 CALM      29.86R
MEDFORD        PTSUNNY   57  49  76 S7        29.85R
MERRILL        SUNNY     58  50  75 SW5       29.85R
$$

WIZ029-030-035-036-043>047-031400-
CENTRAL WISCONSIN

CITY           SKY/WX    TMP DP  RH WIND       PRES   REMARKS
WAUSAU         MOSUNNY   61  50  67 SW12      29.84S
MOSINEE        MOSUNNY   59  52  77 S10       29.87S
MARSHFIELD     CLOUDY    60  50  69 S8        29.86R
STEVENS POINT  MOSUNNY   58  48  68 SW9G17    29.86S
WAUPACA        PTSUNNY   60  50  70 S6        29.88S
WAUTOMA        NOT AVBL
WISC RAPIDS    PTSUNNY   61  48  62 SW8       29.87S
CAMP DOUGLAS   NOT AVBL
$$

WIZ011>013-019>022-031-037>040-048>050-031400-
NORTHEAST WISCONSIN

CITY           SKY/WX    TMP DP  RH WIND       PRES   REMARKS
ANTIGO         SUNNY     57  49  74 SW9       29.86S
SHAWANO        SUNNY     61  49  66 S5        29.87S
OCONTO         SUNNY     61  49  65 SW7       29.87S
STURGEON BAY   MOSUNNY   63  48  59 S8        29.91S
GREEN BAY      SUNNY     63  51  65 S9        29.89S
MANITOWOC      NOT AVBL
APPLETON       PTSUNNY   63  48  59 SW13      29.89F
CLINTONVILLE   SUNNY     59  48  67 S5        29.87S
OSHKOSH        SUNNY     63  49  60 S13       29.89S
$$

WIZ032>034-041-042-053>061-031400-
SOUTHWEST WISCONSIN

CITY           SKY/WX    TMP DP  RH WIND       PRES   REMARKS
LA CROSSE      CLOUDY    64  51  62 SE3       29.81S
SPARTA         PTSUNNY   62  48  60 SW5       29.85R
VIROQUA        CLOUDY    60  49  67 S9        29.84S
BOSCOBEL       CLOUDY    64  49  57 VRB3      29.85F
PRAIRIE DU CHI CLOUDY    61  47  62 SE7       29.84S
PLATTEVILLE    CLOUDY    60  49  67 SE14      29.88S
$$

WIZ056-057-062-063-064-067-068-031400-
SOUTH CENTRAL WISCONSIN

CITY           SKY/WX    TMP DP  RH WIND       PRES   REMARKS
REEDSBURG      PTSUNNY   61  50  66 S7G16     29.86S
BARABOO/DELLS  NOT AVBL
LONE ROCK      NOT AVBL
MINERAL POINT  CLOUDY    61  50  67 S9        29.89S
MADISON        CLOUDY    62  47  57 S10       29.90F
MIDDLETON      CLOUDY    61  47  60 SW10      29.90S
WATERTOWN      MOSUNNY   61  49  64 S7        29.92R
MONROE         LGT RAIN  55  50  82 S12       29.93S
JANESVILLE     MOSUNNY   64  46  52 S9        29.92F
$$

WIZ051-052-058>065-066-070>072-031400-
SOUTHEAST WISCONSIN

CITY           SKY/WX    TMP DP  RH WIND       PRES   REMARKS
MILWAUKEE      PTSUNNY   63  43  48 S10       29.94S
WAUKESHA       MOSUNNY   61  43  51 S10       29.95S
MILWAUKEE/TIMM MOSUNNY   61  43  51 CALM      29.95S
RACINE         PTSUNNY   62  43  49 S7        29.97S
BURLINGTON     PTSUNNY   59  44  58 CALM      29.94F
KENOSHA        CLOUDY    65  45  48 S10       29.95F
FOND DU LAC    SUNNY     66  46  48 SW13G22   29.90F
SHEBOYGAN      MOSUNNY   61  49  64 S9        29.92S
WEST BEND      MOSUNNY   59  46  63 S7        29.92F
JUNEAU         MOSUNNY   60  48  64 S9        29.93S
$$

LSZ147-162-031400-
LAKE SUPERIOR

STATION/POSITION TIME  TEMP    WIND        PRES    WAVE
                       AIR SEA DIR/SP/G            HT/PER
                 (UTC) (F)     (DEG/KT/KT) (MB)    (FT/S)
W MID LAKE BUOY  1150   41 35  250/  8/ 10 1007.2R   1/ 3
DEVILS ISLAND    1200   47     250/  3/  5 1006.9R
PORT WING        1220   50     280/  9/ 16 1006.4S
SAXON HARBOR     1200   63     190/  8/ 19 1006.8F
$$

LMZ867-665-643>646-031400-
LAKE MICHIGAN

STATION/POSITION TIME  TEMP    WIND        PRES    WAVE
                       AIR SEA DIR/SP/G            HT/PER
                 (UTC) (F)     (DEG/KT/KT) (MB)    (FT/S)
CHAMBERS ISLAND  1200   57     170/  5/ 11 1011.9R
NORTHPORT PIER   1200   53     150/  3/  5 1011.9R
SISTER BAY       1202   64     230/ 13/ 16   N/A
KEWAUNEE LAKESHO 1212   49     190/  4/  7 1011.8R
SHEBOYGAN LAKESH 1200   53     180/ 12/ 13 1013.6R
PORT WASHINGTON  1200   52     160/  3/  7 1014.2
ATWATER BUOY     1200   50     130/  4/  4 1015.2R
MILWAUKEE LAKESH 1200   58     140/  7/  9   N/A
KENOSHA   LAKESH 1200   52     180/ 11/ 12 1014.6R
$$

TC  - TEMPERATURE IN CELSIUS
VSB - VISIBILITY IN STATUTE MILES
WCI - WIND CHILL INDEX
HX  - HEAT INDEX



USA.gov is the U.S. government's official web portal to all federal, state and local government web resources and services.